GFSNIL_sfc_wetblb_132.txt.gz
Wetbulb
68.87 67.25 66.82 66.94 65.63 64.92 64.80 64.42 64.41 62.96 62.83 63.08 63.28 62.68 62.78 62.72 61.59 62.00 60.57 60.48 59.83 58.82
67.54 66.47 65.57 65.15 64.65 64.17 63.75 62.30 62.71 62.03 60.99 60.91 61.27 62.00 62.08 61.02 60.71 61.63 61.03 60.12 59.88 59.25
65.37 65.35 64.81 64.52 62.96 63.06 62.62 61.93 61.21 61.00 60.66 59.98 60.01 60.75 61.40 60.68 60.66 59.93 59.97 59.37 59.13 58.65
63.44 63.14 62.36 61.28 60.73 60.70 61.26 61.17 60.58 60.90 60.95 59.82 59.29 60.27 60.03 59.69 59.15 58.89 58.45 58.40 57.41 56.75
62.38 62.27 61.08 60.65 60.52 60.99 60.50 61.42 61.11 60.19 58.97 58.35 58.37 57.41 57.24 57.28 56.88 56.07 55.63 55.84 55.82 55.52
60.79 60.68 60.25 60.37 60.90 60.60 59.86 59.72 59.54 59.45 58.41 58.18 57.92 57.50 56.97 54.85 54.18 53.89 54.07 54.89 54.87 54.45
59.85 60.33 60.32 60.61 60.64 60.52 60.64 59.79 59.20 58.91 57.93 55.88 51.37 50.54 51.00 51.17 50.79 50.92 51.73 53.18 54.18 54.14
59.61 59.80 59.44 58.97 58.87 59.34 59.12 58.34 57.98 56.88 55.06 51.76 46.74 44.23 44.38 46.59 47.45 47.87 48.93 51.40 53.50 53.95
57.33 57.39 57.59 57.70 57.74 56.59 55.45 55.10 55.12 53.97 52.02 47.90 43.48 41.59 42.35 43.24 44.09 47.33 49.02 50.96 52.28 52.67
55.30 55.24 55.60 55.19 53.95 53.21 53.32 53.82 53.16 52.50 49.45 44.83 42.71 40.01 40.06 41.79 43.58 47.55 50.18 49.60 49.67 49.40
54.04 53.94 53.40 52.62 51.90 52.34 53.10 52.03 50.60 49.53 47.34 45.22 40.37 39.13 39.03 39.76 47.01 48.56 47.99 48.42 48.33 48.28
52.90 52.46 51.34 50.37 50.21 50.89 50.72 50.32 49.51 48.78 47.74 45.02 39.82 38.26 38.27 39.59 43.90 44.10 44.07 44.63 43.36 42.36
51.47 50.73 49.58 49.74 49.25 49.79 49.73 48.81 48.71 47.55 47.69 44.64 41.23 37.77 37.49 37.78 39.76 38.30 39.33 42.13 43.60 41.42
49.89 48.88 49.60 49.78 49.89 49.66 49.19 48.67 47.62 46.78 47.76 46.14 42.66 37.43 37.20 37.55 37.13 35.88 36.39 39.67 40.52 42.23

GFSNIL_sfc_wetblb_135.txt.gz
Wetbulb
66.46 65.13 63.85 63.11 62.56 61.58 60.90 61.00 61.14 61.38 60.07 59.47 59.61 58.67 58.58 58.22 57.48 57.20 55.51 55.27 54.99 54.80
66.01 65.08 62.71 61.01 61.65 61.31 59.68 59.75 58.84 58.54 58.00 57.90 58.84 58.35 56.80 57.33 56.46 56.60 55.64 54.67 54.73 54.31
63.60 63.29 62.07 60.92 59.54 58.41 58.04 57.49 57.09 57.02 56.88 57.14 57.79 57.52 56.79 56.36 55.91 55.71 55.63 55.24 53.43 52.92
61.05 60.20 58.73 57.44 57.04 56.58 56.49 56.48 56.40 56.30 56.36 55.67 55.57 54.95 54.13 54.41 54.45 53.47 52.78 52.93 52.58 52.32
58.70 57.77 56.97 56.00 56.10 55.70 55.08 55.91 54.85 54.74 54.42 54.75 54.07 52.33 51.34 50.41 50.11 50.03 49.91 51.40 51.21 51.45
57.05 56.63 56.06 55.99 55.41 54.64 54.04 53.85 54.68 54.31 50.94 49.51 48.29 48.16 48.15 48.23 47.65 47.30 48.05 48.40 49.64 50.37
56.44 56.21 55.94 55.64 55.46 55.66 55.16 53.61 52.64 48.42 46.49 44.81 43.75 43.68 44.45 44.98 44.75 45.03 45.91 47.03 48.44 50.63
55.81 55.64 55.18 54.33 53.72 53.14 52.82 52.50 51.57 46.39 44.18 42.61 42.10 42.02 41.73 41.25 41.23 42.12 43.92 46.15 49.09 51.30
54.46 53.79 51.39 51.70 51.27 51.35 51.20 50.23 48.88 45.64 42.58 40.14 40.46 40.78 42.04 42.41 39.64 42.04 44.04 46.98 47.91 49.34
51.83 50.69 50.33 50.69 50.51 49.54 48.84 48.96 47.46 43.35 40.07 37.72 37.67 40.00 40.18 42.31 40.43 43.57 45.87 46.48 47.22 48.24
50.48 49.24 49.05 48.86 48.16 47.91 48.98 48.52 46.28 44.78 41.32 37.84 37.80 39.31 39.29 40.86 40.03 40.50 41.10 42.25 43.18 42.54
49.21 48.00 47.78 46.57 46.02 46.99 47.13 46.63 46.15 45.70 42.08 36.38 34.61 38.41 38.57 37.68 36.96 38.38 38.72 41.86 42.59 41.63
47.83 46.86 45.65 44.98 45.19 45.66 44.61 44.43 45.19 43.44 41.49 38.82 33.77 37.85 37.87 36.90 35.76 35.21 35.67 39.22 41.66 42.86
47.03 45.65 45.22 44.62 44.20 43.65 43.74 43.23 42.11 42.32 40.89 37.88 34.58 34.13 37.61 38.01 34.01 36.00 35.23 36.51 38.45 39.69

GFSNIL_sfc_wetblb_138.txt.gz
Wetbulb
66.73 65.50 64.74 64.00 62.02 60.63 60.59 60.23 61.73 61.32 59.86 58.40 57.89 57.80 57.09 57.77 56.96 56.11 54.55 54.45 53.24 53.54
63.70 63.43 62.59 61.64 61.13 60.89 60.04 59.29 58.53 58.16 57.34 57.14 57.05 56.26 55.37 54.63 54.47 54.77 54.02 53.20 52.53 52.28
63.18 62.39 62.27 61.04 59.28 58.33 57.37 56.92 56.01 55.42 55.24 55.59 55.91 54.97 53.55 52.38 52.32 51.29 51.29 52.03 50.73 50.37
61.41 60.95 60.75 59.70 58.37 55.91 55.53 55.66 55.46 54.94 54.65 53.30 52.09 51.34 49.85 49.21 48.96 48.43 48.69 49.05 49.26 49.67
58.78 58.28 57.85 56.03 54.69 54.55 54.20 53.98 53.27 52.20 50.49 49.74 48.25 47.35 47.16 46.61 46.62 45.67 45.70 46.07 46.99 47.87
56.68 56.10 54.65 54.29 54.16 53.36 52.78 49.99 48.47 46.98 45.66 45.09 44.89 44.33 44.40 44.60 44.36 44.22 44.44 44.89 45.59 46.95
55.48 54.93 53.49 53.00 52.53 52.47 49.85 45.98 44.66 44.19 43.56 43.02 42.29 42.47 42.49 42.27 41.31 42.12 43.98 45.36 46.96 49.48
53.69 52.71 52.02 51.64 51.54 51.34 47.91 45.76 44.29 42.50 41.44 40.62 40.44 41.62 41.31 40.80 40.35 41.34 43.55 46.33 47.85 49.94
51.64 51.04 50.52 50.67 50.05 48.86 46.95 44.35 42.13 40.26 39.16 37.84 39.61 41.18 43.34 42.72 40.05 42.84 43.64 44.08 45.79 46.84
50.33 49.87 49.70 49.80 49.18 47.97 45.09 42.67 39.93 38.38 37.53 35.90 36.52 40.26 41.18 42.30 38.99 39.00 39.77 40.85 42.04 43.16
49.22 48.83 48.52 47.74 46.88 46.21 44.95 43.03 40.42 38.03 35.75 34.14 36.71 39.58 39.60 39.16 35.51 35.81 38.49 42.18 42.28 41.44
47.86 46.81 46.65 45.61 44.75 45.08 44.27 42.83 41.85 38.47 34.44 32.23 32.69 38.83 38.65 36.12 34.50 35.18 37.28 39.98 42.38 42.41
46.36 45.70 44.57 44.16 43.59 42.91 42.92 42.27 41.53 37.68 34.89 36.26 31.47 37.23 37.72 36.52 33.23 32.88 33.95 37.70 39.34 41.15
44.22 41.35 38.31 36.16 36.59 41.30 40.95 41.20 38.72 36.18 34.54 32.95 33.02 31.28 36.72 37.01 32.16 32.94 33.37 34.27 36.83 38.28

GFSNIL_sfc_wetblb_141.txt.gz
Wetbulb
67.68 66.07 64.76 63.43 63.15 61.41 61.18 60.96 60.16 59.56 59.03 57.61 57.54 56.36 56.26 55.78 55.70 54.43 54.19 52.76 52.18 52.00
65.42 64.47 62.54 61.62 61.85 61.48 60.88 59.80 59.31 58.80 57.72 56.13 55.46 54.52 53.44 52.77 52.63 52.62 52.01 50.73 50.15 50.28
63.14 62.92 62.31 62.07 60.93 59.53 57.38 56.21 55.47 54.73 54.49 53.24 52.65 51.48 50.11 49.13 49.00 48.97 48.99 49.26 48.79 48.46
62.58 62.30 61.23 60.13 58.83 56.74 54.85 54.42 53.36 52.09 50.49 49.33 48.23 47.56 46.65 46.44 46.30 45.79 45.23 45.34 46.50 47.35
61.00 60.10 58.99 57.26 56.38 53.95 51.56 50.45 49.53 48.42 47.03 46.32 45.56 44.71 44.57 44.39 44.19 43.92 43.62 44.20 45.08 46.20
58.93 57.46 56.30 54.30 52.70 49.08 47.27 45.84 45.52 45.18 43.95 43.62 43.46 42.81 42.55 42.30 42.68 43.13 43.78 44.69 45.48 46.35
56.09 55.05 53.26 51.87 48.65 46.56 45.25 43.48 42.63 42.08 41.71 41.33 41.40 42.11 42.14 41.91 41.94 42.88 44.74 45.99 47.36 47.62
53.44 52.90 51.68 48.32 46.71 45.01 43.81 42.55 41.83 40.69 39.92 39.24 40.38 42.39 42.18 41.22 41.56 42.06 42.50 44.38 46.08 45.47
51.69 51.12 49.24 47.14 44.99 43.38 41.72 40.60 39.68 38.32 37.33 36.54 39.39 41.73 43.25 41.28 38.67 39.55 40.31 40.81 41.27 45.35
50.51 49.07 47.90 46.60 44.40 41.98 40.17 38.92 37.30 35.55 35.52 35.75 36.83 40.26 40.32 40.33 35.88 36.96 37.93 39.29 40.02 42.41
48.90 48.02 47.36 45.78 43.71 42.29 40.24 37.94 35.33 34.19 33.36 33.14 36.63 39.29 39.38 38.47 33.45 34.43 36.60 39.09 42.24 41.79
47.76 46.72 46.14 44.69 43.58 42.52 40.58 37.78 34.82 33.41 32.25 30.85 31.02 38.39 38.51 34.60 32.82 33.55 33.83 35.92 37.85 39.43
46.49 45.64 44.65 43.97 42.95 42.54 40.83 37.34 35.02 32.84 31.73 35.23 29.20 36.06 37.33 34.67 32.03 31.73 32.16 33.67 35.20 40.11
39.92 39.42 41.06 41.98 42.98 41.70 39.34 35.92 33.22 31.31 30.07 28.79 30.90 30.87 37.09 37.10 31.68 31.72 31.33 32.62 33.58 35.17

GFSNIL_sfc_wetblb_144.txt.gz
Wetbulb
68.36 67.43 65.89 65.51 64.51 63.47 62.48 62.09 61.75 60.09 59.05 58.49 58.16 57.90 57.82 57.24 56.69 56.40 55.06 54.63 54.31 54.41
66.30 64.70 63.74 63.52 63.50 62.64 61.79 60.49 59.01 58.15 57.01 55.99 55.08 54.69 53.86 52.75 52.81 52.79 52.42 51.86 52.24 52.35
63.39 63.53 63.37 62.99 62.05 60.86 58.76 58.35 56.29 54.45 53.08 51.94 51.17 50.75 50.26 49.26 49.90 49.50 48.60 48.81 49.61 50.08
63.05 63.28 62.87 61.38 58.87 56.41 56.00 53.88 52.04 50.84 49.58 48.79 48.17 48.33 48.25 48.20 47.69 47.32 47.04 47.87 48.10 49.14
61.86 60.96 58.99 56.09 55.32 54.00 50.34 49.89 48.78 47.94 47.01 46.35 45.67 45.74 45.81 45.58 45.86 46.51 47.05 47.94 48.69 49.01
59.03 56.49 54.30 52.09 51.07 49.07 47.01 46.08 45.95 45.52 44.78 44.40 44.52 44.52 44.74 45.09 45.73 46.94 47.58 48.68 48.90 47.51
55.58 53.29 51.16 48.83 47.63 45.92 45.17 43.64 42.76 42.72 42.75 43.38 44.18 44.36 44.39 45.29 45.55 45.90 46.50 47.89 48.35 47.04
51.16 49.19 47.60 45.99 44.93 44.18 43.33 42.19 41.53 40.69 40.82 41.73 42.75 43.95 42.78 42.89 42.90 43.43 44.02 44.59 47.23 46.62
48.96 47.17 45.75 44.76 43.22 42.05 40.45 39.53 39.05 38.67 38.65 38.71 39.77 41.41 42.41 40.73 40.85 41.77 42.54 42.52 43.36 44.51
47.95 46.12 44.86 43.60 41.75 39.60 37.81 37.07 36.22 36.48 37.50 37.54 38.93 40.12 40.37 39.73 39.74 40.71 41.61 42.28 42.32 42.11
47.58 45.94 44.00 41.83 39.60 37.79 36.49 34.81 34.25 34.74 35.32 35.88 38.02 39.08 38.78 38.26 37.81 38.22 38.79 39.88 40.53 40.23
47.12 44.95 43.36 40.80 38.54 37.05 35.04 34.20 34.25 34.66 33.79 33.37 34.68 37.95 37.78 36.55 37.01 37.19 37.40 38.34 40.95 39.57
46.53 44.66 42.77 41.19 38.77 36.45 35.24 34.18 34.01 32.77 33.00 35.88 33.70 38.28 38.07 36.11 36.44 36.03 35.97 37.47 37.53 38.78
44.91 43.62 42.76 41.14 38.98 36.14 34.09 33.46 32.78 31.80 32.12 32.93 36.09 37.00 38.26 37.72 36.29 35.00 35.50 35.14 34.77 35.88

GFSNIL_sfc_wetblb_147.txt.gz
Wetbulb
72.84 70.29 67.53 66.25 65.59 65.41 63.80 63.59 63.83 63.56 63.16 63.56 63.68 63.18 63.42 62.10 61.32 61.54 60.24 60.10 59.98 59.30
68.28 66.77 65.12 64.71 65.53 64.63 62.26 60.41 59.55 60.69 59.86 60.99 61.28 61.25 61.42 59.73 58.85 58.85 58.15 57.54 57.43 57.09
65.06 64.56 64.54 64.73 64.42 63.67 61.67 57.81 56.81 57.07 56.76 57.12 57.02 57.72 57.97 56.58 56.22 55.94 54.93 54.70 55.34 55.63
64.16 64.41 65.10 64.24 63.27 62.11 58.05 55.41 54.79 54.56 54.58 53.88 54.26 55.36 54.72 54.04 53.97 53.74 54.38 54.77 54.88 53.73
63.86 63.74 62.40 61.47 59.77 58.41 53.47 54.69 52.52 52.34 51.43 51.22 51.26 52.38 52.92 52.63 53.43 53.70 53.62 53.12 51.90 50.55
61.16 60.38 59.04 57.65 55.30 52.12 53.12 53.23 51.74 52.01 51.58 51.17 51.20 51.52 51.92 52.36 52.40 52.70 53.01 50.70 49.55 50.31
56.90 56.41 56.60 55.35 51.24 51.72 52.90 51.53 50.85 50.70 50.27 50.21 50.05 50.63 51.06 51.31 51.06 51.17 51.98 49.99 50.74 49.37
51.59 52.26 50.81 48.60 47.96 47.93 48.75 48.78 47.59 47.65 47.78 47.85 48.43 48.49 49.68 49.58 50.21 50.38 50.00 49.68 49.27 48.17
49.56 48.35 47.30 46.70 45.06 45.38 46.44 46.26 45.42 45.67 45.74 45.18 44.34 42.64 44.26 48.61 49.61 49.47 48.33 47.31 47.58 47.38
48.02 47.48 46.16 44.71 43.72 44.07 44.97 45.04 43.85 43.36 44.21 44.12 43.43 41.01 41.87 45.07 47.61 46.73 46.39 46.03 45.78 44.73
47.47 46.66 45.41 44.45 43.05 43.28 42.82 42.21 41.85 42.41 43.41 43.08 41.31 39.27 39.63 42.55 45.84 44.90 45.29 45.05 44.38 43.92
48.40 47.25 45.10 42.49 41.97 41.48 40.46 40.24 40.73 41.81 42.71 42.79 41.60 38.52 39.24 43.18 44.41 43.32 42.94 42.79 40.97 41.78
47.46 45.71 42.42 41.53 40.88 41.20 40.68 40.71 41.32 41.36 42.29 41.92 41.70 38.25 38.46 42.49 43.32 42.29 41.31 41.29 40.84 35.94
45.50 43.68 41.78 41.02 40.43 40.45 40.59 40.53 40.53 40.35 41.78 42.41 42.45 40.88 38.26 39.12 42.36 41.38 40.29 38.97 38.02 37.01

GFSNIL_sfc_wetblb_150.txt.gz
Wetbulb
75.48 72.35 69.70 68.03 67.29 66.99 66.90 66.32 66.10 64.84 65.50 65.68 65.75 65.00 66.16 65.45 65.14 64.92 63.63 63.32 62.61 61.22
72.33 68.50 67.53 66.97 67.53 66.70 66.40 64.11 63.51 63.43 61.94 63.27 63.54 63.75 64.24 62.70 62.37 62.63 62.14 61.03 60.75 59.48
68.92 67.76 67.22 68.41 67.97 67.60 66.85 66.00 62.75 61.90 60.45 60.11 61.11 61.29 61.64 60.82 60.49 59.12 58.47 58.73 58.81 58.43
67.38 67.51 68.16 68.09 67.74 66.34 65.92 63.03 61.18 57.81 58.47 58.96 58.92 58.62 57.73 57.88 57.45 57.85 58.05 58.15 56.91 55.99
65.94 67.31 66.79 65.39 64.99 64.62 63.61 60.41 56.73 56.70 57.22 57.60 57.08 57.37 57.45 57.17 57.44 56.89 55.54 55.19 54.48 54.07
65.11 64.38 62.81 62.04 62.35 60.74 59.49 57.75 57.95 58.18 56.10 56.38 57.12 57.33 57.38 56.69 55.77 55.80 54.39 54.37 53.78 53.41
60.75 59.63 59.85 60.58 60.50 58.85 58.73 58.53 57.85 57.58 56.71 56.28 56.10 55.94 55.46 54.42 55.06 55.15 53.74 54.05 52.97 51.53
58.31 58.77 59.58 58.18 57.56 57.54 56.33 56.51 56.28 55.55 54.83 54.25 53.78 52.73 54.27 54.54 54.29 54.04 53.19 52.91 52.03 49.48
56.97 57.50 55.27 55.79 54.75 54.38 54.20 53.74 53.25 52.74 51.72 50.94 49.70 44.45 46.67 52.88 53.50 52.73 51.73 50.91 50.04 49.56
53.58 52.96 51.42 51.10 50.29 50.94 52.08 51.78 50.96 50.67 50.73 49.84 48.52 42.48 44.08 47.72 51.93 50.75 49.52 48.92 48.37 47.30
48.21 47.21 47.09 46.80 47.50 47.23 49.31 50.02 49.67 49.63 49.51 48.29 44.63 40.73 42.27 45.78 50.31 49.00 47.16 46.18 46.52 45.74
47.65 46.91 45.27 44.52 45.12 47.93 48.47 48.41 48.92 49.36 48.60 47.03 45.38 40.49 41.03 46.16 47.92 46.47 45.77 43.89 40.71 41.94
47.89 45.66 44.99 45.82 47.24 48.26 48.44 47.84 48.35 47.75 47.20 44.00 44.77 38.52 39.87 44.34 46.50 45.74 44.36 44.68 43.23 34.46
45.86 45.02 46.01 47.04 47.16 47.18 47.10 46.95 46.80 46.22 46.13 45.39 43.81 42.13 38.96 39.34 45.95 44.83 43.51 42.40 41.20 39.31